Edwards AFB North Base, CA

4:05 AM PDT on August 22, 2019 (GMT -0700)
Edwards AFB North Base

Weather History for K9L2 - May, 2019

Change the Weather History Date:

Sunday, May 26, 2019

  Actual Average (KEDW) Record (KEDW)
Temperature  
Mean Temperature 54 °F -  
Max Temperature 62 °F 85 °F 100 °F (2014)
Min Temperature 46 °F 56 °F 43 °F (2012)
Degree Days  
Heating Degree Days 11    
Growing Degree Days 4 (Base 50)    
Moisture  
Dew Point 42 °F    
Average Humidity 67    
Maximum Humidity 87    
Minimum Humidity 46    
Precipitation  
Precipitation 0.00 in - - ()
Sea Level Pressure  
Sea Level Pressure 29.81 in    
Wind  
Wind Speed 17 mph ()    
Max Wind Speed 25 mph    
Max Gust Speed 37 mph    
Visibility 9.4 miles    
Events Rain    
Averages and records for this station are not official NWS values.
T = Trace of Precipitation, MM = Missing Value Source: Averaged Metar Reports

Daily Weather History Graph

Daily Weather History Graph

Search for Another Location

Airport or City:

Astronomy

May. 26, 2019 Rise Set
Actual Time 5:41 AM PDT 7:56 PM PDT
Civil Twilight 5:12 AM PDT 8:25 PM PDT
Nautical Twilight 4:37 AM PDT 9:00 PM PDT
Astronomical Twilight 3:58 AM PDT 9:38 PM PDT
Moon 1:36 AM PDT (5/26) 12:37 PM PDT (5/26)
Length of Visible Light 15h 12m
Length of Day
14h 15m
Waning Gibbous, 49% of the Moon is Illuminated
May 26
Waning Gibbous
Jun 3
New
Jun 9
First Quarter
Jun 17
Full
Jun 25
Last Quarter

Hourly Weather History & Observations

Time (PDT) Temp. Windchill Dew Point Humidity Pressure Visibility Wind Dir Wind Speed Gust Speed Precip Events Conditions
12:58 AM 54.3 °F - 43.2 °F 66% 29.72 in 10.0 mi SSW 18.4 mph 25.3 mph N/A   Clear
1:58 AM 52.9 °F - 43.3 °F 70% 29.72 in 10.0 mi SSW 20.7 mph 27.6 mph N/A   Clear
2:58 AM 51.6 °F - 43.5 °F 74% 29.73 in 10.0 mi SSW 19.6 mph 27.6 mph N/A   Clear
3:58 AM 51.1 °F - 43.5 °F 75% 29.73 in 10.0 mi SW 16.1 mph 25.3 mph N/A   Clear
4:58 AM 51.4 °F - 42.4 °F 71% 29.72 in 10.0 mi SSW 19.6 mph - N/A   Clear
5:58 AM 51.3 °F - 43.2 °F 74% 29.73 in 10.0 mi SSW 19.6 mph - N/A   Clear
6:58 AM 52.9 °F - 44.1 °F 72% 29.75 in 9.0 mi SW 20.7 mph 25.3 mph N/A   Partly Cloudy
7:28 AM 55.4 °F - 44.6 °F 67% 29.75 in 10.0 mi SW 21.9 mph 27.6 mph N/A   Mostly Cloudy
7:58 AM 56.1 °F - 43.7 °F 63% 29.77 in 10.0 mi SSW 21.9 mph 28.8 mph N/A   Scattered Clouds
8:13 AM 53.6 °F - 42.8 °F 67% 29.77 in 10.0 mi SW 17.3 mph 25.3 mph N/A   Mostly Cloudy
8:43 AM 53.6 °F - 44.6 °F 72% 29.80 in 10.0 mi SSW 18.4 mph 24.2 mph N/A   Overcast
8:58 AM 53.8 °F - 43.7 °F 69% 29.81 in 10.0 mi SW 19.6 mph 27.6 mph N/A   Mostly Cloudy
9:28 AM 57.2 °F - 41.0 °F 55% 29.80 in 10.0 mi SW 17.3 mph 31.1 mph N/A   Scattered Clouds
9:58 AM 56.3 °F - 42.1 °F 59% 29.80 in 9.0 mi SSW 20.7 mph 29.9 mph N/A   Partly Cloudy
10:58 AM 57.4 °F - 41.9 °F 56% 29.81 in 10.0 mi SW 23.0 mph 29.9 mph N/A   Partly Cloudy
11:58 AM 61.9 °F - 41.0 °F 46% 29.81 in 10.0 mi SW 23.0 mph 29.9 mph N/A   Scattered Clouds
12:58 PM 61.9 °F - 41.2 °F 47% 29.82 in 10.0 mi SW 20.7 mph 27.6 mph N/A   Mostly Cloudy
1:28 PM 60.8 °F - 41.0 °F 48% 29.81 in 9.0 mi SW 24.2 mph 28.8 mph N/A   Mostly Cloudy
1:58 PM 62.1 °F - 42.3 °F 48% 29.81 in 9.0 mi SW 24.2 mph 31.1 mph N/A   Scattered Clouds
2:43 PM 60.8 °F - 41.0 °F 48% 29.81 in 9.0 mi SW 21.9 mph 29.9 mph N/A   Mostly Cloudy
2:58 PM 60.8 °F - 40.1 °F 46% 29.81 in 10.0 mi SSW 21.9 mph 29.9 mph N/A   Scattered Clouds
3:58 PM 61.0 °F - 39.7 °F 46% 29.79 in 9.0 mi SSW 25.3 mph 33.4 mph N/A   Partly Cloudy
4:58 PM 58.8 °F - 39.6 °F 49% 29.81 in 10.0 mi SSW 25.3 mph 36.8 mph N/A   Partly Cloudy
5:28 PM 57.2 °F - 39.2 °F 51% 29.81 in 9.0 mi SW 25.3 mph 33.4 mph N/A   Mostly Cloudy
5:58 PM 56.1 °F - 40.1 °F 55% 29.82 in 9.0 mi SSW 21.9 mph 33.4 mph N/A   Mostly Cloudy
6:13 PM 55.4 °F - 41.0 °F 58% 29.82 in 9.0 mi SSW 25.3 mph 34.5 mph N/A   Scattered Clouds
6:58 PM 53.6 °F - 41.0 °F 62% 29.83 in 8.0 mi SW 25.3 mph 29.9 mph 0.00 in Rain Light Rain
7:24 PM 51.8 °F - 42.8 °F 71% 29.84 in 7.0 mi SW 20.7 mph 32.2 mph N/A   Scattered Clouds
7:48 PM 51.8 °F - 41.0 °F 67% 29.84 in 8.0 mi SW 15.0 mph - N/A Rain Light Rain
7:58 PM 51.4 °F - 43.2 °F 73% 29.86 in 8.0 mi WSW 13.8 mph - 0.00 in Rain Light Rain
7:59 PM 51.8 °F - 44.6 °F 76% 29.86 in 9.0 mi WSW 12.7 mph - N/A   Mostly Cloudy
8:06 PM 50.0 °F - 44.6 °F 82% 29.86 in 9.0 mi WSW 16.1 mph - N/A Rain Light Rain
8:21 PM 50.0 °F - 44.6 °F 82% 29.87 in 8.0 mi WSW 10.4 mph - N/A Rain Light Rain
8:27 PM 50.0 °F - 44.6 °F 82% 29.87 in 9.0 mi WSW 11.5 mph - N/A   Scattered Clouds
8:31 PM 50.0 °F - 44.6 °F 82% 29.88 in 9.0 mi WSW 13.8 mph - N/A Rain Light Rain
8:46 PM 48.2 °F - 44.6 °F 87% 29.88 in 8.0 mi West 12.7 mph - N/A Rain Light Rain
8:58 PM 48.4 °F - 44.8 °F 87% 29.88 in 9.0 mi SW 10.4 mph - 0.00 in Rain Light Rain
8:59 PM 48.2 °F - 44.6 °F 87% 29.88 in 10.0 mi SW 10.4 mph - N/A   Mostly Cloudy
9:58 PM 48.4 °F - 42.3 °F 79% 29.87 in 10.0 mi SW 8.1 mph - 0.00 in   Mostly Cloudy
10:43 PM 46.4 °F 40.7 °F 41.0 °F 81% 29.89 in 10.0 mi SSW 12.7 mph - N/A   Partly Cloudy
10:58 PM 46.6 °F - 41.4 °F 82% 29.87 in 10.0 mi SSW 12.7 mph - N/A   Clear
11:58 PM 46.2 °F 41.7 °F 38.8 °F 75% 29.88 in 10.0 mi SW 9.2 mph - N/A   Mostly Cloudy